Simultaneous Nadir Overpasses (SNOs) Predictions

Prediction of SNOs between TERRA and METOP-C Satellite Orbit:

Table of predicted SNOs for the next 14.0 days since TLE Epoch: 8/6/2022
Index Date (TERRA) Time (TERRA) Lat,Lon (TERRA) SZA (TERRA ) Date (METOP-C) Time (METOP-C) Lat,Lon (METOP-C) SZA (METOP-C ) Distance(km) Time Diff (sec)
1 08/07/2022 22:44:15 -81.16, 59.24 113.05 08/07/2022 22:44:11 -81.16, 59.24 113.05 0.50 4
2 08/07/2022 23:33:40 81.19,-132.68 67.03 08/07/2022 23:34:50 81.19,-132.68 67.06 0.10 70
3 08/10/2022 17:29:00 81.14, -42.26 67.72 08/10/2022 17:27:52 81.15, -42.20 67.70 1.36 68
4 08/10/2022 18:18:26 -81.16, 125.69 112.23 08/10/2022 18:18:31 -81.16, 125.70 112.22 0.46 5
5 08/13/2022 13:03:11 81.16, 24.47 68.61 08/13/2022 13:02:12 81.16, 24.64 68.61 3.03 59
6 08/13/2022 13:52:38 -81.16,-167.91 111.38 08/13/2022 13:52:52 -81.17,-167.86 111.37 1.05 14
7 08/16/2022 08:37:23 81.15, 90.78 69.48 08/16/2022 08:36:34 81.15, 90.71 69.45 1.28 49
8 08/16/2022 09:26:49 -81.18,-101.20 110.46 08/16/2022 09:27:12 -81.18,-101.06 110.43 2.32 23
9 08/19/2022 04:11:33 81.16, 157.40 70.42 08/19/2022 04:10:53 81.16, 157.50 70.41 1.81 40



Historial Predications of SNOs between TERRA and METOP-C
